Weather History for KGLH - November, 2010

Change the Weather History Date:

Sunday, November 28, 2010

  Actual Average Record
Temperature  
Mean Temperature 47 °F 49 °F  
Max Temperature 61 °F 59 °F 81 °F (1949)
Min Temperature 33 °F 39 °F 18 °F (1938)
Degree Days  
Heating Degree Days 18 16  
Month to date heating degree days 305 317  
Since 1 July heating degree days 380 431  
Cooling Degree Days 0 0  
Month to date cooling degree days 13 9  
Year to date cooling degree days 2673 2183  
Moisture  
Dew Point 35 °F    
Average Humidity 66    
Maximum Humidity 96    
Minimum Humidity 36    
Precipitation  
Precipitation 0.00 in 0.22 in 5.85 in (1968)
Month to date precipitation 3.75 4.58  
Year to date precipitation 27.35 46.54  
Sea Level Pressure  
Sea Level Pressure 30.14 in    
Wind  
Wind Speed 7 mph (SE)    
Max Wind Speed 15 mph    
Max Gust Speed 21 mph    
Visibility 10 miles    
Events      
T = Trace of Precipitation, MM = Missing Value Source: NWS Daily Summary

Daily Weather History Graph

Daily Weather History Graph

Search for Another Location

Airport or City:

Trip Planner

Search our weather history database for the weather conditions in past years. The results will help you decide how hot, cold, wet, or windy it might be!

Date:

Astronomy

Nov. 28, 2010 Rise Set
Actual Time 6:47 AM CST 4:56 PM CST
Civil Twilight 6:20 AM CST 5:23 PM CST
Nautical Twilight 5:49 AM CST 5:53 PM CST
Astronomical Twilight 5:19 AM CST 6:23 PM CST
Moon No Moon Rise 12:08 PM CST (11/28)
Length of Visible Light 11h 03m
Length of Day
10h 08m
Waning Gibbous, 51% of the Moon is Illuminated
Nov 28
Waning Gibbous
Nov 28
Last Quarter
Dec 5
New
Dec 13
First Quarter
Dec 21
Full

Hourly Weather History & Observations

Time (CST) Temp. Windchill Dew Point Humidity Pressure Visibility Wind Dir Wind Speed Gust Speed Precip Events Conditions
12:53 AM 39.9 °F - 33.1 °F 77% 30.22 in 10.0 mi Calm Calm - N/A   Clear
1:53 AM 36.0 °F - 33.1 °F 89% 30.22 in 10.0 mi Calm Calm - N/A   Clear
2:53 AM 36.0 °F - 33.1 °F 89% 30.21 in 10.0 mi Calm Calm - N/A   Clear
3:53 AM 34.0 °F 31.0 °F 32.0 °F 92% 30.20 in 10.0 mi ESE 3.5 mph - N/A   Clear
4:53 AM 36.0 °F - 32.0 °F 86% 30.20 in 10.0 mi Calm Calm - N/A   Clear
5:53 AM 35.1 °F 32.2 °F 32.0 °F 89% 30.20 in 10.0 mi ESE 3.5 mph - N/A   Clear
6:53 AM 37.0 °F - 32.0 °F 82% 30.21 in 10.0 mi Calm Calm - N/A   Clear
7:53 AM 39.0 °F 36.8 °F 36.0 °F 89% 30.21 in 10.0 mi East 3.5 mph - N/A   Clear
8:53 AM 46.0 °F 43.9 °F 37.0 °F 71% 30.22 in 10.0 mi ESE 4.6 mph - N/A   Clear
9:53 AM 51.1 °F - 37.0 °F 59% 30.23 in 10.0 mi SSE 6.9 mph - N/A   Clear
10:53 AM 55.9 °F - 36.0 °F 47% 30.21 in 10.0 mi SE 9.2 mph - N/A   Clear
11:53 AM 57.9 °F - 37.0 °F 46% 30.16 in 10.0 mi SSE 10.4 mph - N/A   Clear
12:53 PM 60.1 °F - 36.0 °F 41% 30.12 in 10.0 mi SSE 12.7 mph 18.4 mph N/A   Clear
1:53 PM 61.0 °F - 34.0 °F 36% 30.11 in 10.0 mi SSE 12.7 mph - N/A   Clear
2:53 PM 61.0 °F - 33.1 °F 35% 30.09 in 10.0 mi SSE 10.4 mph - N/A   Clear
3:53 PM 59.0 °F - 34.0 °F 39% 30.08 in 10.0 mi SE 9.2 mph - N/A   Clear
4:53 PM 54.0 °F - 37.9 °F 55% 30.06 in 10.0 mi SE 8.1 mph - N/A   Clear
5:53 PM 54.0 °F - 35.1 °F 49% 30.06 in 10.0 mi SSE 10.4 mph - N/A   Clear
6:53 PM 52.0 °F - 35.1 °F 53% 30.05 in 10.0 mi SE 11.5 mph - N/A   Clear
7:53 PM 51.1 °F - 35.1 °F 54% 30.06 in 10.0 mi SE 10.4 mph - N/A   Clear
8:53 PM 51.1 °F - 35.1 °F 54% 30.05 in 10.0 mi SE 12.7 mph - N/A   Clear
9:53 PM 50.0 °F - 35.1 °F 57% 30.04 in 10.0 mi SE 11.5 mph - N/A   Clear
10:53 PM 48.9 °F - 36.0 °F 61% 30.05 in 10.0 mi SSE 10.4 mph - N/A   Mostly Cloudy
11:53 PM 48.0 °F - 36.0 °F 63% 30.04 in 10.0 mi SE 9.2 mph - N/A   Mostly Cloudy